Location: Fredericksburg
(30.2750°N, 98.8720°W)
Time: 10:33:21
(UTC-05:00)

PCSat - Visible Passes

Search period start: 31 July 2014 00:00
Search period end: 10 August 2014 00:00
Orbit: 786 x 796 km, 67.1° (Epoch: 30 July)

Date Brightness Start Highest point End Pass type
(mag) Time Alt. Az. Time Alt. Az. Time Alt. Az.
31 Jul 12.1 01:04:51 15° NNE 01:04:51 15° NNE 01:05:43 10° NNE visible
01 Aug 12.2 00:34:46 12° NNE 00:34:46 12° NNE 00:35:09 10° NNE visible
01 Aug 12.3 02:15:28 12° NNW 02:15:28 12° NNW 02:16:18 10° NNW visible
02 Aug 12.2 01:45:20 15° NNW 01:45:20 15° NNW 01:46:41 10° N visible
03 Aug 12.1 01:15:08 17° NNW 01:15:08 17° NNW 01:16:43 10° N visible
04 Aug 11.9 00:44:51 19° N 00:44:51 19° N 00:46:32 10° N visible
05 Aug 11.7 00:14:29 21° N 00:14:29 21° N 00:16:14 10° NNE visible
05 Aug 11.5 23:43:58 22° NNE 23:43:58 22° NNE 23:45:48 10° NNE visible
06 Aug 11.3 23:13:17 23° NNE 23:13:17 23° NNE 23:15:16 10° NNE visible
07 Aug 12.3 00:53:56 12° NW 00:53:56 12° NW 00:55:58 10° NNW visible
07 Aug 11.0 22:42:19 25° NE 22:42:19 25° NE 22:44:36 10° NE visible
08 Aug 12.0 00:22:57 17° NW 00:23:02 17° NW 00:26:34 10° NNW visible
08 Aug 10.7 22:10:52 27° ENE 22:10:52 27° ENE 22:13:48 10° NE visible
08 Aug 11.5 23:51:26 23° WNW 23:52:20 24° WNW 23:56:40 10° N visible
09 Aug 10.5 21:38:14 25° ESE 21:38:29 25° ESE 21:42:48 10° NE visible
09 Aug 11.1 23:18:39 19° WSW 23:21:40 33° WNW 23:26:32 10° N visible
